Weather in Ilovaisk

Ukraine / Donetsk Region     47˚55′29″N   38˚11′52″E
temp.,
°C
wind,
m/s
gust,
m/s
humid.,
%
clouds,
%
prec.,
mm/h
press.,
hPa
HPBL,
m
3 december, thu
thu323:00−1˚ese71182100 0.0 1030524
02:00ese61186100 0.1 1030519
05:00−1˚ese71184100 0.1 1029490
08:00−1˚ese61084100 0.1 1030511
11:00ese71183100 0.0 1030555
14:00+1˚ese71183100 0.1 1029553
17:00+1˚ese71185100 0.0 1029553
20:00ese61086100 0.0 1029462
4 december, fri
fri423:00ese6108698 0.0 1029404
02:00−1˚ese6108698 0.0 1029411
05:00−1˚ese6108499 0.0 1028434
08:00ese61184100 0.0 1029462
11:00+1˚ese61080100 0.0 1029480
14:00+1˚ese71079100 0.0 1029489
17:00e71181100 0.0 1030506
20:00e71180100 0.0 1030507
5 december, sat
sat523:00−1˚e71173100 0.0 1030527
02:00−2˚e6127489 0.0 1031468
05:00−3˚e6127620 0.0 1031429
08:00−3˚e7127212 0.0 1031437
11:00e712585 0.0 1031544
14:00+1˚e712423 0.0 1031656
17:00−3˚e715540 0.0 1032493
20:00−4˚e715530 0.0 1033474
6 december, sun
sun623:00−4˚e714520 0.0 1033443
02:00−5˚e713540 0.0 1034424
05:00−5˚e713550 0.0 1034408
08:00−5˚e714520 0.0 1034446
11:00−2˚e813380 0.0 1034553
14:00−1˚e812390 0.0 1033582
17:00−4˚e715490 0.0 1034452
20:00−5˚e714540 0.0 1035466
7 december, mon
mon723:00−5˚e714680 0.0 1035469
02:00−6˚e713700 0.0 1035438
05:00−6˚e713690 0.0 1035428
08:00−6˚e714710 0.0 1035482
11:00−3˚e813540 0.0 1035636
14:00−1˚e813450 0.0 1034753
17:00−4˚e715520 0.0 1034563
20:00−5˚e715550 0.0 1034513